General Ignacio P Garcia International Airport
MMHO : rendu visible

Aérodrome :











RETROUVEZ-NOUS SUR...

 
LOGIN :

S'inscrire | Disclaimer

   EN    FR    IT 

 









Légende :    VFR   VFR Marginal   IFR   IFR Intensif   IFR Très Intensif
Visi : 
Plafond : 
>= 8 km
>= 3000ft
5 à 8 km
1000 à 3000 ft
1500m à 5 km
500 à 1000 ft
800 à 1500m
200 à 500 ft
< 800m
< 200 ft
Symboles :   Orages  Brouillard  Fortes neiges  Fortes précipitations  Vent > 20 kt






- Altitude de l'aérodrome : 627 ft
- Code IATA : HMO


MMHO - General Ignacio P Garcia International

DERNIER METAR :
  • 271319Z 00000KT 10SM SKC 25/13 A2991 RMK HZY

METARs EXPIRÉS :
  • 271247Z 07004KT 10SM SKC 22/10 A2990 RMK HZY RTS

TAF TAF MMHO
Valide du 27 à 06h jusqu'au 28 à 06h UTC


270450Z 2706/2806 24005KT P6SM SKC
FM271800 24010KT P6SM SKC
FM280200 24005KT P6SM SKC
FIR MMFR / Amérique du Nord



MET'MAP, la Météo Aéronautique d'un coup d'oeil ! - Copyright ORBIFLY Décembre 2007 - Disclaimer

ORBIFLY MET'MAP TEAM :

Programmation & Développement : Alexandra Zaïnal
Sur une idée originale de : Baudouin d'Aumeries
Assistance à la programmation : Marc-Olivier Méhu
Soutien technique & logistique : Manuel Goepfert

Contact : metmap@orbifly.com




SOURCES & CREDITS :

   NOAA       Earth
Advisory